Location: Edinburgh
(55.9500°N, 3.1600°W)
Time: 16:09:31
(UTC+01:00)

N. Korean satellite - Pass Details

Date: 11 October 2017
Orbit: 459 x 517 km, 97.2° (Epoch: 16 October)

Event Time Altitude Azimuth Distance (km) Brightness Sun altitude
Rises 19:19:24 0° 177° (S) 2,552 10.2 -8.9°
Reaches altitude 10° 19:21:30 10° 182° (S) 1,666 9.3 -9.2°
Maximum altitude 19:25:01 51° 260° (W) 608 7.5 -9.6°
Drops below altitude 10° 19:28:29 10° 337° (NNW) 1,650 9.6 -10.1°
Sets 19:30:34 0° 343° (NNW) 2,525 10.5 -10.4°
